Flag for Canada Weather past 2 weeks in Campbell River, British Columbia, Canada

Now
39 °F

Partly cloudy.


Feels Like: 35 °F
Forecast: 36 / 44 °F
Wind: 6 mph from Northwest

Location: Campbell River Airport

Current Time: Dec 21, 2014 at 11:30:10 PM

Latest Report: Dec 21, 2014 at 9:00 PM


Visibility: 15 mi

Pressure: 30.02 "Hg

Humidity: 93%

Dew point: 37 °F

Location of Campbell RiverLocation

Historic Weather in Campbell River — Graph

°F

Campbell River temperature yesterday

Maximum temperature yesterday: 45 °F (at 10:00 AM)
Minimum temperature yesterday: 43 °F (at 6:00 AM)
Average temperature yesterday: 44 °F

Past Weeks' High & Low Weather Summary

 TemperatureHumidityPressure
High55 °F (Dec 9, 12:00 PM)100% (Dec 6, 9:00 PM)30.25 "Hg (Dec 6, 9:00 PM)
Low32 °F (Dec 12, 9:00 PM)72% (Dec 9, 6:00 PM)29.14 "Hg (Dec 10, 9:00 AM)
Average43 °F94%29.75 "Hg
* Reported Dec 6 9:00 PM — Dec 21 9:00 PM, Campbell River, Weather by CustomWeather, © 2014

Note: Actual official high and low records may vary slightly from our data, if they occured in-between our weather recording intervals... More about our weather records

Advertising

Campbell River weather history for previous 24 hours

 ConditionsComfort  
Time TempWeatherWind HumidityBarometerVisibility
9:00 PM
Dec 21
39 °FPartly cloudy.6 mph93%30.02 "Hg15 mi
8:00 PM39 °FMostly cloudy.5 mph93%30.01 "Hg15 mi
7:00 PM41 °FMostly cloudy.3 mph100%29.97 "Hg12 mi
6:00 PM41 °FSprinkles. Fog.3 mph100%29.95 "Hg6 mi
5:00 PM41 °FFog.5 mph100%29.95 "Hg6 mi
4:00 PM43 °FFog.2 mph100%29.91 "Hg4 mi
3:00 PM45 °FFog.3 mph93%29.89 "Hg5 mi
2:00 PM45 °FFog.5 mph93%29.88 "Hg5 mi
1:00 PM45 °FFog.3 mph93%29.88 "Hg4 mi
12:00 PM45 °FFog.2 mph93%29.87 "Hg4 mi
11:00 AM43 °FBroken clouds.2 mph100%29.85 "Hg20 mi
10:00 AM41 °FFog.No wind93%29.83 "Hg3 mi
9:46 AM41 °FFog.2 mph100%29.83 "Hg3 mi
9:00 AM37 °FSprinkles. Mostly cloudy.3 mph100%29.80 "Hg10 mi
8:00 AM34 °FPassing clouds.No wind100%29.78 "Hg20 mi
7:00 AM34 °FPassing clouds.3 mph100%29.74 "Hg15 mi
6:00 AM34 °FPassing clouds.2 mph100%29.70 "Hg15 mi
Weather by CustomWeather, © 2014

See weather overviewHow to use our weather pages